STARLINK-35345

Last updated on Mon Oct 20 2025 00:02:07 GMT+0000 (Coordinated Universal Time)

1 65833U 25221L 25292.25002315 -.01554185 00000+0 -28551-1 0 9997 2 65833 53.1601 27.8285 0001113 88.3433 249.9680 15.51580190 4434
UTC large
Height (km)
Speed (km/s)
/
Latitude / Longitude
Inclination (degrees)
Orbital Period (minutes)
Azimuth
Elevation
Range (km)
Doppler Factor

Next 0 passes for location: London (51.5072 / 0.1276)

Sorry there are no passes over London.